DLH35N EDDF-LEPA

Flight info

Callsign DLH35N
Flight time 2h 6m
Altitude 29000
Route ANEKI6E ANEKI Y163 HERBI/N0436F370 Y164 MOPAN DCT LUTIX DCT BENOT DCT NEMOS DCT GEVEA DCT INCUS DCT BALSI DCT RETNO DCT TUPOX DCT MTG DCT DIVKO DCT VATIR DCT PIVUS N852 VERSO L129 LUNIK
Aircraft A320/M-SDE2E3FGIJ1LORWXYZ/HB1

Departure

Time 2026-05-05 10:30
Airport Frankfurt Main Airport (EDDF)

Arrival

Time 2026-05-05 12:36
Airport Palma de Mallorca Airport (LEPA)
Time Latitude Longitude Altitude Speed Heading
2026-05-05 09:48 50.04901 8.58796 366 ft 0 kts 160°
2026-05-05 10:18 50.04919 8.58785 367 ft 4 kts 160°
2026-05-05 10:18 50.04945 8.58770 360 ft 4 kts 160°
2026-05-05 10:18 50.04965 8.58759 366 ft 4 kts 175°
2026-05-05 10:18 50.04989 8.58767 364 ft 4 kts 221°
2026-05-05 10:19 50.05003 8.58798 361 ft 3 kts 250°
2026-05-05 10:19 50.05009 8.58821 359 ft 0 kts 250°
2026-05-05 10:25 50.05004 8.58803 366 ft 5 kts 250°
2026-05-05 10:25 50.04987 8.58728 365 ft 9 kts 249°
2026-05-05 10:25 50.04953 8.58662 359 ft 7 kts 207°
2026-05-05 10:26 50.04913 8.58669 363 ft 4 kts 160°
2026-05-05 10:26 50.04869 8.58694 362 ft 13 kts 159°
2026-05-05 10:26 50.04789 8.58741 367 ft 10 kts 159°
2026-05-05 10:26 50.04738 8.58769 370 ft 8 kts 166°
2026-05-05 10:27 50.04683 8.58767 370 ft 6 kts 186°
2026-05-05 10:27 50.04646 8.58759 370 ft 5 kts 187°
2026-05-05 10:27 50.04641 8.58758 370 ft 3 kts 187°
2026-05-05 10:27 50.04594 8.58728 371 ft 8 kts 215°
2026-05-05 10:28 50.04557 8.58678 371 ft 6 kts 221°
2026-05-05 10:28 50.04525 8.58636 371 ft 6 kts 220°
2026-05-05 10:28 50.04482 8.58564 370 ft 12 kts 244°
2026-05-05 10:28 50.04470 8.58520 370 ft 0 kts 249°
2026-05-05 10:29 50.04415 8.58296 369 ft 61 kts 249°
2026-05-05 10:29 50.04187 8.57327 369 ft 126 kts 249°
2026-05-05 10:30 50.03833 8.55834 489 ft 161 kts 250°
2026-05-05 10:30 50.03448 8.54211 1218 ft 160 kts 249°
2026-05-05 10:30 50.03055 8.52575 1828 ft 168 kts 249°
2026-05-05 10:30 50.02484 8.50877 2182 ft 190 kts 224°
2026-05-05 10:31 50.01289 8.49793 2522 ft 212 kts 198°
2026-05-05 10:31 49.99838 8.49116 3171 ft 221 kts 189°
2026-05-05 10:31 49.98334 8.49417 4213 ft 223 kts 154°
2026-05-05 10:31 49.97186 8.51038 4888 ft 229 kts 122°
2026-05-05 10:32 49.96345 8.53124 5853 ft 231 kts 134°
2026-05-05 10:32 49.94924 8.54406 6293 ft 251 kts 170°
2026-05-05 10:32 49.93123 8.54541 6900 ft 265 kts 184°
2026-05-05 10:32 49.91261 8.54277 7761 ft 271 kts 186°
2026-05-05 10:33 49.89370 8.53997 8662 ft 275 kts 184°
2026-05-05 10:33 49.87444 8.53818 9554 ft 280 kts 182°
2026-05-05 10:33 49.85464 8.53753 10179 ft 294 kts 180°
2026-05-05 10:33 49.83342 8.53786 10540 ft 315 kts 179°
2026-05-05 10:34 49.81123 8.53893 11241 ft 322 kts 178°
2026-05-05 10:34 49.78870 8.54042 12054 ft 326 kts 179°
2026-05-05 10:34 49.76591 8.53919 12860 ft 329 kts 185°
2026-05-05 10:34 49.74302 8.53641 13674 ft 332 kts 186°
2026-05-05 10:35 49.71984 8.53346 14383 ft 335 kts 186°
2026-05-05 10:35 49.69652 8.53039 15098 ft 338 kts 186°
2026-05-05 10:35 49.67307 8.52722 15806 ft 340 kts 186°
2026-05-05 10:35 49.64940 8.52402 16520 ft 343 kts 186°
2026-05-05 10:36 49.62555 8.52080 17225 ft 345 kts 186°
2026-05-05 10:36 49.60152 8.51760 17922 ft 348 kts 186°
2026-05-05 10:36 49.57730 8.51441 18539 ft 351 kts 186°
2026-05-05 10:36 49.55313 8.51128 19090 ft 355 kts 186°
2026-05-05 10:37 49.52839 8.50806 19649 ft 359 kts 186°
2026-05-05 10:37 49.50338 8.50476 20202 ft 363 kts 186°
2026-05-05 10:37 49.47812 8.50145 20744 ft 367 kts 185°
2026-05-05 10:37 49.45253 8.49813 21285 ft 371 kts 185°
2026-05-05 10:38 49.42671 8.49478 21811 ft 374 kts 185°
2026-05-05 10:38 49.40061 8.49140 22314 ft 378 kts 185°
2026-05-05 10:38 49.37427 8.48797 22841 ft 382 kts 185°
2026-05-05 10:38 49.34767 8.48449 23382 ft 386 kts 185°
2026-05-05 10:39 49.32078 8.48098 23829 ft 389 kts 185°
2026-05-05 10:39 49.29374 8.47745 24316 ft 391 kts 185°
2026-05-05 10:39 49.26663 8.47390 24799 ft 392 kts 185°
2026-05-05 10:39 49.23945 8.47032 25272 ft 393 kts 185°
2026-05-05 10:40 49.21223 8.46676 25735 ft 394 kts 185°
2026-05-05 10:40 49.18498 8.46321 26277 ft 393 kts 185°
2026-05-05 10:40 49.15770 8.45966 26767 ft 393 kts 185°
2026-05-05 10:40 49.13041 8.45614 27222 ft 394 kts 185°
2026-05-05 10:41 49.10303 8.45263 27661 ft 395 kts 186°
2026-05-05 10:41 49.07556 8.44911 28114 ft 397 kts 186°
2026-05-05 10:41 49.04830 8.44235 28568 ft 398 kts 193°
2026-05-05 10:41 49.02126 8.43289 28831 ft 399 kts 193°
2026-05-05 10:42 48.94060 8.40460 28875 ft 395 kts 193°
2026-05-05 10:43 48.88702 8.38605 28879 ft 394 kts 193°
2026-05-05 10:43 48.83354 8.36759 28882 ft 394 kts 193°
2026-05-05 10:44 48.78003 8.34909 28888 ft 394 kts 193°
2026-05-05 10:44 48.72687 8.32989 28885 ft 392 kts 193°
2026-05-05 10:45 48.67390 8.31027 28882 ft 393 kts 193°
2026-05-05 10:45 48.62124 8.29090 28880 ft 392 kts 193°
2026-05-05 10:46 48.56824 8.27162 28879 ft 392 kts 193°
2026-05-05 10:46 48.51520 8.25245 28873 ft 392 kts 193°
2026-05-05 10:47 48.46219 8.23329 28876 ft 392 kts 193°
2026-05-05 10:47 48.40923 8.21379 28881 ft 392 kts 193°
2026-05-05 10:48 48.35631 8.19440 28879 ft 392 kts 193°
2026-05-05 10:48 48.30336 8.17518 28886 ft 391 kts 193°
2026-05-05 10:49 48.25086 8.15542 28883 ft 391 kts 197°
2026-05-05 10:49 48.20140 8.12140 28883 ft 392 kts 204°
2026-05-05 10:50 48.15248 8.08502 28888 ft 393 kts 204°
2026-05-05 10:50 48.10337 8.04871 28885 ft 395 kts 204°
2026-05-05 10:51 48.05399 8.01240 28889 ft 395 kts 204°
2026-05-05 10:51 48.00467 7.97620 28889 ft 395 kts 204°
2026-05-05 10:52 47.95528 7.93993 28890 ft 395 kts 204°
2026-05-05 10:52 47.90576 7.90366 28894 ft 398 kts 203°
2026-05-05 10:53 47.85605 7.86745 28894 ft 398 kts 203°
2026-05-05 10:53 47.80626 7.83120 28893 ft 398 kts 203°
2026-05-05 10:54 47.75648 7.79501 28893 ft 398 kts 203°
2026-05-05 10:54 47.70674 7.75890 28893 ft 398 kts 203°
2026-05-05 10:55 47.65702 7.72288 28893 ft 398 kts 203°
2026-05-05 10:55 47.60726 7.68686 28893 ft 398 kts 203°
2026-05-05 10:56 47.55783 7.65113 28893 ft 398 kts 203°
2026-05-05 10:56 47.50811 7.61538 28893 ft 397 kts 203°
2026-05-05 10:57 47.45841 7.57972 28892 ft 397 kts 203°
2026-05-05 10:57 47.40877 7.54414 28894 ft 397 kts 203°
2026-05-05 10:58 47.35905 7.50862 28892 ft 397 kts 203°
2026-05-05 10:58 47.30935 7.47317 28914 ft 397 kts 202°
2026-05-05 10:59 47.25943 7.43767 28895 ft 399 kts 202°
2026-05-05 10:59 47.20943 7.40223 28889 ft 399 kts 202°
2026-05-05 11:00 47.16213 7.35925 28890 ft 406 kts 217°
2026-05-05 11:00 47.12480 7.29617 28892 ft 412 kts 227°
2026-05-05 11:01 47.08907 7.23031 28898 ft 412 kts 227°
2026-05-05 11:01 47.05321 7.16462 28909 ft 412 kts 227°
2026-05-05 11:02 47.01743 7.09896 28910 ft 412 kts 227°
2026-05-05 11:02 46.98159 7.03347 28916 ft 412 kts 227°
2026-05-05 11:03 46.94571 6.96813 28917 ft 410 kts 227°
2026-05-05 11:03 46.90945 6.90491 28921 ft 406 kts 220°
2026-05-05 11:04 46.86637 6.85202 28921 ft 404 kts 216°
2026-05-05 11:04 46.82281 6.80013 28919 ft 404 kts 216°
2026-05-05 11:05 46.77914 6.74831 28919 ft 404 kts 216°
2026-05-05 11:05 46.73569 6.69691 28915 ft 401 kts 217°
2026-05-05 11:06 46.69246 6.64568 28913 ft 400 kts 217°
2026-05-05 11:06 46.64924 6.59455 28910 ft 400 kts 217°
2026-05-05 11:07 46.60604 6.54353 28908 ft 400 kts 217°
2026-05-05 11:07 46.56277 6.49254 28909 ft 400 kts 217°
2026-05-05 11:08 46.51945 6.44177 28911 ft 401 kts 216°
2026-05-05 11:08 46.47604 6.39094 28908 ft 401 kts 216°
2026-05-05 11:09 46.43260 6.34023 28915 ft 401 kts 216°
2026-05-05 11:09 46.38913 6.28952 28945 ft 401 kts 216°
2026-05-05 11:10 46.34582 6.23904 28940 ft 399 kts 216°
2026-05-05 11:10 46.30250 6.18865 28948 ft 399 kts 216°
2026-05-05 11:11 46.25699 6.14330 28949 ft 396 kts 204°
2026-05-05 11:11 46.20450 6.12118 28956 ft 394 kts 188°
2026-05-05 11:12 46.15035 6.10923 28947 ft 393 kts 189°
2026-05-05 11:12 46.09637 6.09721 28938 ft 393 kts 189°
2026-05-05 11:13 46.05147 6.08727 28946 ft 393 kts 189°
2026-05-05 11:13 45.99743 6.07530 28948 ft 392 kts 190°
2026-05-05 11:14 45.94370 6.06338 28944 ft 390 kts 190°
2026-05-05 11:14 45.89003 6.05148 28946 ft 390 kts 190°
2026-05-05 11:15 45.83639 6.03973 28946 ft 390 kts 190°
2026-05-05 11:15 45.78275 6.02793 28943 ft 389 kts 191°
2026-05-05 11:16 45.72928 6.01605 28945 ft 389 kts 191°
2026-05-05 11:16 45.67578 6.00426 28948 ft 389 kts 191°
2026-05-05 11:17 45.62227 5.99255 28944 ft 389 kts 191°
2026-05-05 11:17 45.56887 5.98089 28946 ft 388 kts 192°
2026-05-05 11:18 45.51559 5.96919 28949 ft 387 kts 192°
2026-05-05 11:18 45.46248 5.95711 28940 ft 386 kts 193°
2026-05-05 11:19 45.40990 5.94130 28941 ft 384 kts 197°
2026-05-05 11:19 45.35812 5.92408 28935 ft 381 kts 197°
2026-05-05 11:20 45.30656 5.90732 28933 ft 379 kts 197°
2026-05-05 11:20 45.25488 5.89118 28934 ft 381 kts 197°
2026-05-05 11:21 45.20318 5.87529 28929 ft 379 kts 197°
2026-05-05 11:21 45.15179 5.85939 28932 ft 378 kts 197°
2026-05-05 11:22 45.10047 5.84347 28934 ft 377 kts 197°
2026-05-05 11:22 45.04928 5.82762 28933 ft 377 kts 197°
2026-05-05 11:23 44.99825 5.81193 28924 ft 374 kts 198°
2026-05-05 11:23 44.94754 5.79628 28925 ft 373 kts 198°
2026-05-05 11:24 44.89683 5.78069 28924 ft 373 kts 198°
2026-05-05 11:24 44.84608 5.76524 28907 ft 373 kts 198°
2026-05-05 11:25 44.79543 5.74980 28932 ft 372 kts 198°
2026-05-05 11:25 44.74516 5.73436 28930 ft 372 kts 198°
2026-05-05 11:26 44.69465 5.71893 28928 ft 371 kts 198°
2026-05-05 11:26 44.64411 5.70349 28934 ft 372 kts 198°
2026-05-05 11:27 44.59366 5.68819 28937 ft 371 kts 198°
2026-05-05 11:27 44.54318 5.67280 28936 ft 371 kts 198°
2026-05-05 11:28 44.49283 5.65749 28938 ft 371 kts 198°
2026-05-05 11:28 44.44254 5.64232 28939 ft 369 kts 198°
2026-05-05 11:29 44.39218 5.62718 28939 ft 370 kts 199°
2026-05-05 11:29 44.34412 5.60389 28940 ft 365 kts 206°
2026-05-05 11:30 44.29682 5.57788 28946 ft 365 kts 206°
2026-05-05 11:30 44.24956 5.55205 28942 ft 364 kts 206°
2026-05-05 11:31 44.20246 5.52638 28943 ft 363 kts 206°
2026-05-05 11:31 44.15547 5.50073 28946 ft 363 kts 206°
2026-05-05 11:32 44.10852 5.47514 28939 ft 363 kts 206°
2026-05-05 11:32 44.06151 5.44959 28944 ft 363 kts 207°
2026-05-05 11:33 44.01441 5.42408 28948 ft 363 kts 207°
2026-05-05 11:33 43.96725 5.39849 28948 ft 363 kts 207°
2026-05-05 11:34 43.92018 5.37294 28945 ft 363 kts 207°
2026-05-05 11:34 43.87307 5.34745 28946 ft 364 kts 207°
2026-05-05 11:35 43.82579 5.32198 28946 ft 363 kts 207°
2026-05-05 11:35 43.77880 5.29672 28941 ft 362 kts 207°
2026-05-05 11:36 43.73183 5.27150 28945 ft 362 kts 207°
2026-05-05 11:36 43.68488 5.24631 28946 ft 363 kts 207°
2026-05-05 11:37 43.63781 5.22101 28946 ft 363 kts 207°
2026-05-05 11:37 43.59102 5.19593 28945 ft 363 kts 207°
2026-05-05 11:38 43.54390 5.17072 28951 ft 363 kts 207°
2026-05-05 11:38 43.49673 5.14564 28947 ft 364 kts 206°
2026-05-05 11:39 43.44945 5.12051 28945 ft 364 kts 206°
2026-05-05 11:39 43.40215 5.09534 28949 ft 364 kts 207°
2026-05-05 11:40 43.35895 5.06102 28947 ft 358 kts 218°
2026-05-05 11:40 43.31798 5.02224 28917 ft 358 kts 218°
2026-05-05 11:41 43.27663 4.98343 28946 ft 361 kts 218°
2026-05-05 11:41 43.23522 4.94457 28970 ft 360 kts 218°
2026-05-05 11:42 43.19408 4.90610 28949 ft 357 kts 218°
2026-05-05 11:42 43.15305 4.86766 28948 ft 357 kts 218°
2026-05-05 11:43 43.11209 4.82915 28937 ft 358 kts 218°
2026-05-05 11:43 43.07088 4.79067 28948 ft 359 kts 218°
2026-05-05 11:44 43.02787 4.75542 28952 ft 361 kts 213°
2026-05-05 11:44 42.98393 4.72214 28954 ft 361 kts 213°
2026-05-05 11:45 42.93994 4.68885 28951 ft 361 kts 213°
2026-05-05 11:45 42.89589 4.65556 28952 ft 362 kts 213°
2026-05-05 11:46 42.85181 4.62221 28955 ft 362 kts 213°
2026-05-05 11:46 42.80778 4.58889 28955 ft 362 kts 213°
2026-05-05 11:47 42.76373 4.55574 28955 ft 360 kts 213°
2026-05-05 11:47 42.71994 4.52284 28949 ft 359 kts 213°
2026-05-05 11:48 42.65432 4.47366 28961 ft 359 kts 213°
2026-05-05 11:48 42.61069 4.44100 28960 ft 359 kts 213°
2026-05-05 11:49 42.56695 4.40835 28960 ft 359 kts 213°
2026-05-05 11:49 42.52318 4.37566 28923 ft 359 kts 213°
2026-05-05 11:50 42.47944 4.34307 28959 ft 361 kts 213°
2026-05-05 11:50 42.43508 4.31013 28959 ft 361 kts 213°
2026-05-05 11:51 42.39101 4.27736 28956 ft 361 kts 213°
2026-05-05 11:51 42.34720 4.24484 28955 ft 362 kts 213°
2026-05-05 11:52 42.30305 4.21214 28962 ft 362 kts 213°
2026-05-05 11:52 42.25883 4.17944 28952 ft 361 kts 213°
2026-05-05 11:53 42.21477 4.14701 28958 ft 361 kts 213°
2026-05-05 11:53 42.17071 4.11459 28952 ft 361 kts 213°
2026-05-05 11:54 42.12663 4.08216 28950 ft 361 kts 213°
2026-05-05 11:54 42.08260 4.04978 28949 ft 360 kts 213°
2026-05-05 11:55 42.03861 4.01744 28952 ft 360 kts 213°
2026-05-05 11:55 41.99454 3.98525 28951 ft 360 kts 213°
2026-05-05 11:56 41.95046 3.95312 28948 ft 360 kts 213°
2026-05-05 11:56 41.90333 3.92893 28930 ft 371 kts 198°
2026-05-05 11:57 41.85226 3.91718 28945 ft 372 kts 197°
2026-05-05 11:57 41.80990 3.90735 28944 ft 372 kts 197°
2026-05-05 11:58 41.75888 3.89551 28948 ft 372 kts 197°
2026-05-05 11:58 41.70792 3.88376 28919 ft 372 kts 197°
2026-05-05 11:59 41.65700 3.87215 28945 ft 371 kts 197°
2026-05-05 11:59 41.60606 3.86049 28944 ft 371 kts 197°
2026-05-05 12:00 41.55517 3.84883 28949 ft 371 kts 197°
2026-05-05 12:00 41.50430 3.83720 28952 ft 371 kts 198°
2026-05-05 12:01 41.45338 3.82550 28948 ft 371 kts 197°
2026-05-05 12:01 41.40243 3.81379 28950 ft 371 kts 197°
2026-05-05 12:02 41.35154 3.80212 28959 ft 371 kts 198°
2026-05-05 12:02 41.30072 3.79052 28947 ft 370 kts 198°
2026-05-05 12:03 41.24993 3.77901 28951 ft 370 kts 197°
2026-05-05 12:03 41.19912 3.76749 28947 ft 370 kts 197°
2026-05-05 12:04 41.14913 3.75457 28943 ft 364 kts 204°
2026-05-05 12:04 41.10219 3.73087 28942 ft 361 kts 207°
2026-05-05 12:05 41.05542 3.70672 28935 ft 361 kts 207°
2026-05-05 12:05 41.00849 3.68250 28949 ft 362 kts 207°
2026-05-05 12:06 40.96124 3.65822 28950 ft 362 kts 207°
2026-05-05 12:06 40.91457 3.63428 28945 ft 362 kts 207°
2026-05-05 12:07 40.86730 3.61006 28945 ft 362 kts 207°
2026-05-05 12:07 40.82064 3.58620 28946 ft 364 kts 207°
2026-05-05 12:08 40.77337 3.56204 28948 ft 364 kts 207°
2026-05-05 12:08 40.72606 3.53799 28948 ft 364 kts 207°
2026-05-05 12:09 40.67877 3.51391 28948 ft 364 kts 207°
2026-05-05 12:09 40.63153 3.48982 28948 ft 364 kts 207°
2026-05-05 12:10 40.58420 3.46574 28945 ft 365 kts 207°
2026-05-05 12:10 40.53685 3.44175 28945 ft 364 kts 207°
2026-05-05 12:11 40.48953 3.41781 28946 ft 364 kts 207°
2026-05-05 12:11 40.44162 3.39580 28945 ft 372 kts 197°
2026-05-05 12:12 40.41540 3.39375 28907 ft 384 kts 186°
2026-05-05 12:12 40.38861 3.39530 28943 ft 386 kts 186°
2026-05-05 12:12 40.33481 3.39847 28942 ft 387 kts 186°
2026-05-05 12:13 40.28103 3.40152 28945 ft 387 kts 186°
2026-05-05 12:13 40.22726 3.40456 28939 ft 387 kts 186°
2026-05-05 12:14 40.17343 3.40763 28943 ft 388 kts 185°
2026-05-05 12:14 40.12043 3.41081 28838 ft 367 kts 186°
2026-05-05 12:15 40.09542 3.41240 28735 ft 353 kts 186°
2026-05-05 12:15 40.07106 3.41384 28736 ft 349 kts 186°
2026-05-05 12:15 40.02269 3.41637 28736 ft 347 kts 186°
2026-05-05 12:16 39.97449 3.42049 28714 ft 349 kts 174°
2026-05-05 12:16 39.95238 3.43451 28327 ft 368 kts 151°
2026-05-05 12:16 39.93515 3.46095 27502 ft 402 kts 126°
2026-05-05 12:17 39.92667 3.49674 26700 ft 428 kts 100°
2026-05-05 12:17 39.92922 3.53603 25928 ft 445 kts 76°
2026-05-05 12:17 39.94288 3.57231 25180 ft 450 kts 51°
2026-05-05 12:17 39.96563 3.59981 24448 ft 446 kts 27°
2026-05-05 12:18 39.99389 3.61442 23755 ft 432 kts
2026-05-05 12:18 40.02335 3.61569 22951 ft 419 kts 347°
2026-05-05 12:18 40.05189 3.60946 22119 ft 414 kts 340°
2026-05-05 12:18 40.08008 3.60113 21316 ft 416 kts 340°
2026-05-05 12:19 40.10782 3.59130 20530 ft 409 kts 331°
2026-05-05 12:19 40.13236 3.57377 19765 ft 397 kts 316°
2026-05-05 12:19 40.15139 3.54880 19018 ft 382 kts 298°
2026-05-05 12:19 40.16171 3.51774 18292 ft 369 kts 277°
2026-05-05 12:20 40.16261 3.48465 17478 ft 363 kts 261°
2026-05-05 12:20 40.15592 3.45318 16667 ft 360 kts 244°
2026-05-05 12:20 40.14199 3.42608 15861 ft 361 kts 227°
2026-05-05 12:20 40.12206 3.40603 15093 ft 365 kts 210°
2026-05-05 12:21 40.09791 3.39512 14350 ft 371 kts 192°
2026-05-05 12:21 40.07195 3.39446 13598 ft 377 kts 179°
2026-05-05 12:21 40.04582 3.39718 12783 ft 377 kts 178°
2026-05-05 12:21 40.01972 3.40012 11988 ft 376 kts 178°
2026-05-05 12:22 39.99374 3.40305 11216 ft 374 kts 178°
2026-05-05 12:22 39.96786 3.40591 10453 ft 372 kts 178°
2026-05-05 12:22 39.94214 3.40873 9708 ft 369 kts 178°
2026-05-05 12:22 39.91671 3.41145 9114 ft 361 kts 178°
2026-05-05 12:23 39.89231 3.41404 8936 ft 342 kts 178°
2026-05-05 12:23 39.86936 3.41648 8933 ft 320 kts 178°
2026-05-05 12:23 39.84821 3.41873 8940 ft 301 kts 178°
2026-05-05 12:23 39.82762 3.42091 8941 ft 283 kts 178°
2026-05-05 12:24 39.80834 3.42292 8941 ft 275 kts 178°
2026-05-05 12:24 39.78927 3.42486 8941 ft 274 kts 178°
2026-05-05 12:24 39.77056 3.42676 8941 ft 274 kts 178°
2026-05-05 12:24 39.75128 3.42878 8936 ft 274 kts 178°
2026-05-05 12:25 39.73260 3.43042 8943 ft 271 kts 184°
2026-05-05 12:25 39.71460 3.42489 8947 ft 266 kts 208°
2026-05-05 12:25 39.70046 3.40984 8941 ft 265 kts 233°
2026-05-05 12:25 39.69284 3.38819 8907 ft 267 kts 256°
2026-05-05 12:26 39.69004 3.36409 8506 ft 266 kts 260°
2026-05-05 12:26 39.68770 3.34058 8073 ft 266 kts 261°
2026-05-05 12:26 39.68532 3.31642 7649 ft 266 kts 261°
2026-05-05 12:26 39.68298 3.29293 7278 ft 266 kts 261°
2026-05-05 12:27 39.68064 3.26968 7108 ft 251 kts 261°
2026-05-05 12:27 39.67844 3.24794 6860 ft 236 kts 261°
2026-05-05 12:27 39.67633 3.22751 6646 ft 222 kts 261°
2026-05-05 12:27 39.67433 3.20824 6426 ft 210 kts 260°
2026-05-05 12:28 39.67242 3.18995 6205 ft 199 kts 260°
2026-05-05 12:28 39.67061 3.17265 5999 ft 186 kts 260°
2026-05-05 12:28 39.66888 3.15625 5771 ft 182 kts 260°
2026-05-05 12:28 39.66715 3.14004 5543 ft 180 kts 259°
2026-05-05 12:29 39.66547 3.12411 5314 ft 178 kts 260°
2026-05-05 12:29 39.66378 3.10821 5100 ft 178 kts 260°
2026-05-05 12:29 39.66209 3.09236 4873 ft 177 kts 261°
2026-05-05 12:29 39.66043 3.07658 4647 ft 176 kts 259°
2026-05-05 12:30 39.65876 3.06092 4419 ft 175 kts 260°
2026-05-05 12:30 39.65707 3.04516 4192 ft 177 kts 261°
2026-05-05 12:30 39.65540 3.02936 4043 ft 175 kts 259°
2026-05-05 12:30 39.65377 3.01385 4009 ft 173 kts 259°
2026-05-05 12:31 39.65209 2.99824 4008 ft 176 kts 260°
2026-05-05 12:31 39.65040 2.98257 4007 ft 175 kts 261°
2026-05-05 12:31 39.64870 2.96681 3946 ft 175 kts 260°
2026-05-05 12:31 39.64447 2.95195 3515 ft 180 kts 240°
2026-05-05 12:32 39.63816 2.93780 3176 ft 180 kts 239°
2026-05-05 12:32 39.63181 2.92404 2960 ft 173 kts 238°
2026-05-05 12:32 39.62580 2.91115 2845 ft 160 kts 237°
2026-05-05 12:32 39.62032 2.89945 2709 ft 145 kts 236°
2026-05-05 12:33 39.61532 2.88882 2526 ft 131 kts 235°
2026-05-05 12:33 39.61064 2.87886 2144 ft 129 kts 235°
2026-05-05 12:33 39.60595 2.86892 1865 ft 131 kts 235°
2026-05-05 12:33 39.60117 2.85878 1727 ft 132 kts 233°
2026-05-05 12:34 39.59638 2.84861 1567 ft 132 kts 234°
2026-05-05 12:34 39.59155 2.83834 1405 ft 135 kts 235°
2026-05-05 12:34 39.58667 2.82798 1219 ft 136 kts 237°
2026-05-05 12:34 39.58172 2.81749 1045 ft 135 kts 237°
2026-05-05 12:35 39.57683 2.80709 850 ft 132 kts 235°
2026-05-05 12:35 39.57202 2.79693 630 ft 137 kts 237°
2026-05-05 12:35 39.56700 2.78621 429 ft 142 kts 238°
2026-05-05 12:35 39.56171 2.77524 249 ft 143 kts 236°
2026-05-05 12:36 39.55668 2.76464 112 ft 134 kts 237°
2026-05-05 12:36 39.55209 2.75467 46 ft 122 kts 237°
2026-05-05 12:36 39.54811 2.74628 31 ft 91 kts 238°
2026-05-05 12:36 39.54582 2.74143 35 ft 24 kts 242°
2026-05-05 12:37 39.54551 2.73970 34 ft 20 kts 266°
2026-05-05 12:37 39.54548 2.73788 35 ft 21 kts 268°
2026-05-05 12:37 39.54591 2.73644 35 ft 15 kts 318°
2026-05-05 12:37 39.54597 2.73537 34 ft 14 kts 234°
2026-05-05 12:38 39.54540 2.73423 35 ft 16 kts 239°
2026-05-05 12:38 39.54488 2.73311 37 ft 14 kts 243°
2026-05-05 12:38 39.54523 2.73278 37 ft 1 kts 349°